Time,TemperatureF,DewpointF,PressureIn,WindDirection,WindDirectionDegrees,WindSpeedMPH,WindSpeedGustMPH,Humidity,HourlyPrecipIn,Conditions,Clouds,dailyrainin,SoftwareType,DateUTC
2013-03-07 00:00:00,31.3,28.9,30.20,NNW,343,0.0,4.0,91,0.00,,,0.00,meteohub,2013-03-07 05:00:00,
2013-03-07 00:01:00,31.3,28.9,30.20,NNW,343,2.0,4.0,91,0.00,,,0.00,meteohub,2013-03-07 05:01:00,
2013-03-07 00:05:00,31.3,28.9,30.20,NNW,343,1.0,4.0,91,0.00,,,0.00,meteohub,2013-03-07 05:05:00,
2013-03-07 00:10:00,31.3,28.9,30.20,NNW,343,1.0,4.0,91,0.00,,,0.00,meteohub,2013-03-07 05:10:00,
2013-03-07 00:15:00,31.3,28.9,30.20,NNW,343,1.0,4.0,91,0.00,,,0.00,meteohub,2013-03-07 05:15:00,
2013-03-07 00:20:00,31.3,28.9,30.20,NNW,343,0.0,4.0,91,0.00,,,0.00,meteohub,2013-03-07 05:20:00,
2013-03-07 00:26:00,31.1,28.8,30.20,NNW,343,3.0,4.0,91,0.00,,,0.00,meteohub,2013-03-07 05:26:00,
2013-03-07 00:31:00,31.1,28.8,30.21,NNW,346,2.0,4.0,91,0.00,,,0.00,meteohub,2013-03-07 05:31:00,
2013-03-07 00:36:00,31.3,28.9,30.21,NNW,346,2.0,6.0,91,0.00,,,0.00,meteohub,2013-03-07 05:36:00,
2013-03-07 00:41:00,31.3,28.9,30.20,North,0,4.0,6.0,91,0.00,,,0.00,meteohub,2013-03-07 05:41:00,
2013-03-07 00:46:00,31.3,28.9,30.21,North,0,4.0,7.0,91,0.00,,,0.00,meteohub,2013-03-07 05:46:00,
2013-03-07 00:51:00,31.3,28.9,30.21,NNW,329,2.0,8.0,91,0.00,,,0.00,meteohub,2013-03-07 05:51:00,
2013-03-07 00:56:00,31.3,28.9,30.21,NNW,340,4.0,8.0,91,0.00,,,0.00,meteohub,2013-03-07 05:56:00,
2013-03-07 01:01:00,31.3,28.9,30.21,North,0,2.0,8.0,91,0.00,,,0.00,meteohub,2013-03-07 06:01:00,
2013-03-07 01:06:00,31.1,29.1,30.21,North,11,4.0,7.0,92,0.00,,,0.00,meteohub,2013-03-07 06:06:00,
2013-03-07 01:12:00,31.1,29.1,30.21,NNW,342,5.0,8.0,92,0.00,,,0.00,meteohub,2013-03-07 06:12:00,
2013-03-07 01:17:00,31.1,29.1,30.21,NW,322,5.0,8.0,92,0.00,,,0.00,meteohub,2013-03-07 06:17:00,
2013-03-07 01:22:00,30.9,28.9,30.21,North,351,4.0,8.0,92,0.00,,,0.00,meteohub,2013-03-07 06:22:00,
2013-03-07 01:27:00,30.9,28.9,30.21,NNW,337,4.0,8.0,92,0.00,,,0.00,meteohub,2013-03-07 06:27:00,
2013-03-07 01:32:00,30.9,28.9,30.21,NNW,338,4.0,8.0,92,0.00,,,0.00,meteohub,2013-03-07 06:32:00,
2013-03-07 01:37:00,30.9,28.9,30.21,North,5,6.0,8.0,92,0.00,,,0.00,meteohub,2013-03-07 06:37:00,
2013-03-07 01:42:00,30.7,28.9,30.21,North,355,6.0,8.0,93,0.00,,,0.00,meteohub,2013-03-07 06:42:00,
2013-03-07 01:47:00,30.7,28.9,30.21,NNW,343,5.0,8.0,93,0.00,,,0.00,meteohub,2013-03-07 06:47:00,
2013-03-07 01:52:00,30.7,28.9,30.21,NNW,333,7.0,9.0,93,0.00,,,0.00,meteohub,2013-03-07 06:52:00,
2013-03-07 01:57:00,30.7,28.9,30.21,North,355,6.0,9.0,93,0.00,,,0.00,meteohub,2013-03-07 06:57:00,
2013-03-07 02:02:00,30.7,28.9,30.21,NNW,331,4.0,9.0,93,0.00,,,0.00,meteohub,2013-03-07 07:02:00,
2013-03-07 02:07:00,30.7,28.9,30.21,NNW,336,4.0,10.0,93,0.00,,,0.00,meteohub,2013-03-07 07:07:00,
2013-03-07 02:12:00,30.7,28.9,30.21,NNW,348,4.0,10.0,93,0.00,,,0.00,meteohub,2013-03-07 07:12:00,
2013-03-07 02:17:00,30.7,28.9,30.21,NNW,343,3.0,8.0,93,0.00,,,0.00,meteohub,2013-03-07 07:17:00,
2013-03-07 02:22:00,30.7,28.9,30.21,NNW,331,6.0,7.0,93,0.00,,,0.00,meteohub,2013-03-07 07:22:00,
2013-03-07 02:27:00,30.7,28.9,30.21,NNW,340,3.0,7.0,93,0.00,,,0.00,meteohub,2013-03-07 07:27:00,
2013-03-07 02:32:00,30.7,28.9,30.21,NNW,330,5.0,7.0,93,0.00,,,0.00,meteohub,2013-03-07 07:32:00,
2013-03-07 02:37:00,30.7,28.9,30.21,North,355,6.0,8.0,93,0.00,,,0.00,meteohub,2013-03-07 07:37:00,
2013-03-07 02:42:00,30.7,28.9,30.21,North,355,2.0,9.0,93,0.00,,,0.00,meteohub,2013-03-07 07:42:00,
2013-03-07 02:47:00,30.7,28.9,30.21,NNW,345,7.0,9.0,93,0.00,,,0.00,meteohub,2013-03-07 07:47:00,
2013-03-07 02:52:00,30.9,28.9,30.21,NNW,342,5.0,9.0,92,0.00,,,0.00,meteohub,2013-03-07 07:52:00,
2013-03-07 02:57:00,30.9,28.9,30.22,NNE,19,5.0,9.0,92,0.00,,,0.00,meteohub,2013-03-07 07:57:00,
2013-03-07 03:02:00,30.9,28.9,30.22,NNW,340,5.0,9.0,92,0.00,,,0.00,meteohub,2013-03-07 08:02:00,
2013-03-07 03:07:00,30.9,28.9,30.22,NNW,340,3.0,7.0,92,0.00,,,0.00,meteohub,2013-03-07 08:07:00,
2013-03-07 03:12:00,30.9,28.9,30.22,NNE,22,5.0,7.0,92,0.00,,,0.00,meteohub,2013-03-07 08:12:00,
2013-03-07 03:17:00,30.9,28.9,30.22,North,0,3.0,7.0,92,0.00,,,0.00,meteohub,2013-03-07 08:17:00,
2013-03-07 03:22:00,31.1,29.1,30.22,NNW,336,5.0,7.0,92,0.00,,,0.00,meteohub,2013-03-07 08:22:00,
2013-03-07 03:28:00,30.9,28.9,30.22,NNW,346,4.0,8.0,92,0.00,,,0.00,meteohub,2013-03-07 08:28:00,
2013-03-07 03:33:00,30.9,29.1,30.22,NNW,334,5.0,8.0,93,0.00,,,0.00,meteohub,2013-03-07 08:33:00,
2013-03-07 03:38:00,30.9,29.1,30.22,NW,321,2.0,8.0,93,0.00,,,0.00,meteohub,2013-03-07 08:38:00,
2013-03-07 03:43:00,30.9,29.1,30.22,NNW,341,3.0,7.0,93,0.00,,,0.00,meteohub,2013-03-07 08:43:00,
2013-03-07 03:48:00,30.9,29.1,30.22,NNW,343,2.0,7.0,93,0.00,,,0.00,meteohub,2013-03-07 08:48:00,
2013-03-07 03:54:00,30.9,29.1,30.22,North,351,1.0,7.0,93,0.00,,,0.00,meteohub,2013-03-07 08:54:00,
2013-03-07 03:59:00,30.9,29.1,30.22,NNE,15,1.0,6.0,93,0.00,,,0.00,meteohub,2013-03-07 08:59:00,
2013-03-07 04:04:00,30.7,28.9,30.22,NNW,339,2.0,6.0,93,0.00,,,0.00,meteohub,2013-03-07 09:04:00,
2013-03-07 04:09:00,30.7,28.9,30.22,NNE,19,2.0,5.0,93,0.00,,,0.00,meteohub,2013-03-07 09:09:00,
2013-03-07 04:15:00,30.7,28.9,30.22,NNW,341,3.0,5.0,93,0.00,,,0.00,meteohub,2013-03-07 09:15:00,
2013-03-07 04:20:00,30.7,28.9,30.22,NNW,330,1.0,4.0,93,0.00,,,0.00,meteohub,2013-03-07 09:20:00,
2013-03-07 04:25:00,30.7,28.9,30.22,NNW,330,2.0,4.0,93,0.00,,,0.00,meteohub,2013-03-07 09:25:00,
2013-03-07 04:30:00,30.7,28.9,30.22,NNW,331,2.0,4.0,93,0.00,,,0.00,meteohub,2013-03-07 09:30:00,
2013-03-07 04:35:00,30.7,28.9,30.22,NNW,333,3.0,4.0,93,0.00,,,0.00,meteohub,2013-03-07 09:35:00,
2013-03-07 04:40:00,30.6,28.8,30.22,NNE,33,2.0,4.0,93,0.00,,,0.00,meteohub,2013-03-07 09:40:00,
2013-03-07 04:45:00,30.6,28.8,30.22,NNW,338,3.0,4.0,93,0.00,,,0.00,meteohub,2013-03-07 09:45:00,
2013-03-07 04:50:00,30.6,28.8,30.22,NNW,336,4.0,5.0,93,0.00,,,0.00,meteohub,2013-03-07 09:50:00,
2013-03-07 04:56:00,30.6,28.8,30.22,NNW,331,2.0,5.0,93,0.00,,,0.00,meteohub,2013-03-07 09:56:00,
2013-03-07 05:01:00,30.6,28.8,30.22,North,355,2.0,5.0,93,0.00,,,0.00,meteohub,2013-03-07 10:01:00,
2013-03-07 05:06:00,30.6,29.1,30.22,NNW,331,4.0,5.0,94,0.00,,,0.00,meteohub,2013-03-07 10:06:00,
2013-03-07 05:11:00,30.6,29.1,30.23,NNW,336,1.0,6.0,94,0.00,,,0.00,meteohub,2013-03-07 10:11:00,
2013-03-07 05:16:00,30.6,28.8,30.23,NNW,340,4.0,6.0,93,0.00,,,0.00,meteohub,2013-03-07 10:16:00,
2013-03-07 05:21:00,30.6,29.1,30.23,North,355,3.0,6.0,94,0.00,,,0.00,meteohub,2013-03-07 10:21:00,
2013-03-07 05:27:00,30.6,29.1,30.23,NNW,344,5.0,6.0,94,0.00,,,0.00,meteohub,2013-03-07 10:27:00,
2013-03-07 05:32:00,30.6,29.1,30.23,NNW,335,3.0,6.0,94,0.00,,,0.00,meteohub,2013-03-07 10:32:00,
2013-03-07 05:37:00,30.6,29.1,30.24,NNW,340,7.0,7.0,94,0.00,,,0.00,meteohub,2013-03-07 10:37:00,
2013-03-07 05:42:00,30.6,29.1,30.24,NNW,330,3.0,7.0,94,0.00,,,0.00,meteohub,2013-03-07 10:42:00,
2013-03-07 05:47:00,30.6,29.1,30.24,NNW,340,5.0,7.0,94,0.00,,,0.00,meteohub,2013-03-07 10:47:00,
2013-03-07 05:52:00,30.6,29.1,30.24,North,349,3.0,7.0,94,0.00,,,0.00,meteohub,2013-03-07 10:52:00,
2013-03-07 05:57:00,30.6,29.1,30.24,NNW,338,4.0,8.0,94,0.00,,,0.00,meteohub,2013-03-07 10:57:00,
2013-03-07 06:02:00,30.6,29.1,30.24,NW,321,1.0,8.0,94,0.00,,,0.00,meteohub,2013-03-07 11:02:00,
2013-03-07 06:08:00,30.6,29.1,30.24,NW,325,4.0,8.0,94,0.00,,,0.00,meteohub,2013-03-07 11:08:00,
2013-03-07 06:13:00,30.6,29.1,30.24,NW,318,4.0,7.0,94,0.00,,,0.00,meteohub,2013-03-07 11:13:00,
2013-03-07 06:18:00,30.6,29.1,30.24,North,349,2.0,7.0,94,0.00,,,0.00,meteohub,2013-03-07 11:18:00,
2013-03-07 06:23:00,30.6,28.8,30.25,North,355,3.0,7.0,93,0.00,,,0.00,meteohub,2013-03-07 11:23:00,
2013-03-07 06:28:00,30.6,29.1,30.25,NW,325,4.0,6.0,94,0.00,,,0.00,meteohub,2013-03-07 11:28:00,
2013-03-07 06:33:00,30.6,28.8,30.25,NW,316,3.0,8.0,93,0.00,,,0.00,meteohub,2013-03-07 11:33:00,
2013-03-07 06:39:00,30.6,28.8,30.25,NW,314,3.0,8.0,93,0.00,,,0.00,meteohub,2013-03-07 11:39:00,
2013-03-07 06:44:00,30.6,28.8,30.25,NW,323,4.0,8.0,93,0.00,,,0.00,meteohub,2013-03-07 11:44:00,
2013-03-07 06:49:00,30.6,28.8,30.25,North,5,5.0,7.0,93,0.00,,,0.00,meteohub,2013-03-07 11:49:00,
2013-03-07 06:55:00,30.6,28.8,30.25,NNW,329,3.0,7.0,93,0.00,,,0.00,meteohub,2013-03-07 11:55:00,
2013-03-07 07:00:00,30.6,28.8,30.25,North,350,1.0,7.0,93,0.00,,,0.00,meteohub,2013-03-07 12:00:00,
2013-03-07 07:05:00,30.6,28.8,30.26,North,0,1.0,6.0,93,0.00,,,0.00,meteohub,2013-03-07 12:05:00,
2013-03-07 07:10:00,30.6,28.8,30.27,NNW,339,3.0,5.0,93,0.00,,,0.00,meteohub,2013-03-07 12:10:00,
2013-03-07 07:15:00,30.6,28.8,30.27,NW,318,5.0,5.0,93,0.00,,,0.00,meteohub,2013-03-07 12:15:00,
2013-03-07 07:20:00,30.6,28.8,30.27,NW,317,2.0,6.0,93,0.00,,,0.00,meteohub,2013-03-07 12:20:00,
2013-03-07 07:25:00,30.6,28.8,30.27,NNW,331,3.0,6.0,93,0.00,,,0.00,meteohub,2013-03-07 12:25:00,
2013-03-07 07:30:00,30.6,28.8,30.27,North,355,3.0,6.0,93,0.00,,,0.00,meteohub,2013-03-07 12:30:00,
2013-03-07 07:36:00,30.6,28.8,30.27,NNW,345,3.0,6.0,93,0.00,,,0.00,meteohub,2013-03-07 12:36:00,
2013-03-07 07:41:00,30.6,28.8,30.28,NNW,334,3.0,6.0,93,0.00,,,0.00,meteohub,2013-03-07 12:41:00,
2013-03-07 07:46:00,30.6,28.8,30.28,NNW,331,2.0,7.0,93,0.00,,,0.00,meteohub,2013-03-07 12:46:00,
2013-03-07 07:51:00,30.6,28.8,30.28,NNW,327,3.0,7.0,93,0.00,,,0.00,meteohub,2013-03-07 12:51:00,
2013-03-07 07:56:00,30.6,28.8,30.28,NNW,347,1.0,9.0,93,0.00,,,0.00,meteohub,2013-03-07 12:56:00,
2013-03-07 08:02:00,30.6,29.1,30.28,North,355,4.0,9.0,94,0.00,,,0.00,meteohub,2013-03-07 13:02:00,
2013-03-07 08:07:00,30.7,29.3,30.28,NNW,328,2.0,9.0,94,0.00,,,0.00,meteohub,2013-03-07 13:07:00,
2013-03-07 08:12:00,30.7,29.3,30.28,NNW,329,1.0,7.0,94,0.00,,,0.00,meteohub,2013-03-07 13:12:00,
2013-03-07 08:17:00,30.7,29.3,30.28,NW,323,2.0,6.0,94,0.00,,,0.00,meteohub,2013-03-07 13:17:00,
2013-03-07 08:22:00,30.9,29.5,30.28,NNW,337,2.0,6.0,94,0.00,,,0.00,meteohub,2013-03-07 13:22:00,
2013-03-07 08:27:00,30.9,29.1,30.28,NNW,330,3.0,7.0,93,0.00,,,0.00,meteohub,2013-03-07 13:27:00,
2013-03-07 08:32:00,31.1,29.3,30.28,North,350,3.0,8.0,93,0.00,,,0.00,meteohub,2013-03-07 13:32:00,
2013-03-07 08:37:00,31.1,29.3,30.28,North,355,5.0,8.0,93,0.00,,,0.00,meteohub,2013-03-07 13:37:00,
2013-03-07 08:42:00,31.1,29.3,30.28,NNW,327,4.0,8.0,93,0.00,,,0.00,meteohub,2013-03-07 13:42:00,
2013-03-07 08:48:00,31.3,29.5,30.28,NNW,342,4.0,8.0,93,0.00,,,0.00,meteohub,2013-03-07 13:48:00,
2013-03-07 08:53:00,31.5,29.7,30.28,North,355,1.0,9.0,93,0.00,,,0.00,meteohub,2013-03-07 13:53:00,
2013-03-07 08:58:00,31.6,29.7,30.28,NNW,344,3.0,9.0,92,0.00,,,0.00,meteohub,2013-03-07 13:58:00,
2013-03-07 09:03:00,31.8,29.8,30.29,NNW,327,2.0,9.0,92,0.00,,,0.00,meteohub,2013-03-07 14:03:00,
2013-03-07 09:08:00,31.8,29.8,30.29,NNW,327,3.0,9.0,92,0.00,,,0.00,meteohub,2013-03-07 14:08:00,
2013-03-07 09:13:00,32.2,30.2,30.29,North,349,5.0,9.0,92,0.00,,,0.00,meteohub,2013-03-07 14:13:00,
2013-03-07 09:18:00,32.4,30.0,30.29,NW,319,5.0,9.0,91,0.00,,,0.00,meteohub,2013-03-07 14:18:00,
2013-03-07 09:24:00,32.5,30.2,30.29,NNW,327,7.0,9.0,91,0.00,,,0.00,meteohub,2013-03-07 14:24:00,
2013-03-07 09:29:00,32.5,30.2,30.29,NNW,336,6.0,9.0,91,0.00,,,0.00,meteohub,2013-03-07 14:29:00,
2013-03-07 09:34:00,32.9,30.4,30.30,NW,323,5.0,10.0,90,0.00,,,0.00,meteohub,2013-03-07 14:34:00,
2013-03-07 09:39:00,33.1,30.4,30.30,NW,321,3.0,10.0,90,0.00,,,0.00,meteohub,2013-03-07 14:39:00,
2013-03-07 09:44:00,33.4,30.7,30.30,NNW,345,8.0,8.0,90,0.00,,,0.00,meteohub,2013-03-07 14:44:00,
2013-03-07 09:49:00,33.4,30.6,30.30,NNW,343,5.0,8.0,89,0.00,,,0.00,meteohub,2013-03-07 14:49:00,
2013-03-07 09:54:00,33.4,30.6,30.30,NNE,32,4.0,8.0,89,0.00,,,0.00,meteohub,2013-03-07 14:54:00,
2013-03-07 09:59:00,33.6,30.4,30.30,NW,322,5.0,8.0,88,0.00,,,0.00,meteohub,2013-03-07 14:59:00,
2013-03-07 10:05:00,33.6,30.7,30.30,NNW,344,3.0,8.0,89,0.00,,,0.00,meteohub,2013-03-07 15:05:00,
2013-03-07 10:10:00,34.0,30.7,30.30,North,355,7.0,8.0,88,0.00,,,0.00,meteohub,2013-03-07 15:10:00,
2013-03-07 10:15:00,33.6,30.4,30.31,NNW,346,4.0,11.0,88,0.00,,,0.00,meteohub,2013-03-07 15:15:00,
2013-03-07 10:20:00,33.6,30.7,30.31,North,355,5.0,11.0,89,0.00,,,0.00,meteohub,2013-03-07 15:20:00,
2013-03-07 10:25:00,33.8,30.6,30.31,NW,311,7.0,8.0,88,0.00,,,0.00,meteohub,2013-03-07 15:25:00,
2013-03-07 10:30:00,34.2,30.9,30.31,NNW,340,3.0,8.0,88,0.00,,,0.00,meteohub,2013-03-07 15:30:00,
2013-03-07 10:35:00,34.3,31.1,30.31,NNW,327,3.0,8.0,88,0.00,,,0.00,meteohub,2013-03-07 15:35:00,
2013-03-07 10:41:00,34.2,30.9,30.31,NNW,340,3.0,7.0,88,0.00,,,0.00,meteohub,2013-03-07 15:41:00,
2013-03-07 10:46:00,34.0,30.6,30.31,NNW,339,3.0,8.0,87,0.00,,,0.00,meteohub,2013-03-07 15:46:00,
2013-03-07 10:51:00,33.8,30.6,30.31,NNW,329,1.0,8.0,88,0.00,,,0.00,meteohub,2013-03-07 15:51:00,
2013-03-07 10:57:00,33.6,30.4,30.31,NNW,331,5.0,8.0,88,0.00,,,0.00,meteohub,2013-03-07 15:57:00,
2013-03-07 11:02:00,33.6,30.4,30.32,NNE,28,4.0,7.0,88,0.00,,,0.00,meteohub,2013-03-07 16:02:00,
2013-03-07 11:07:00,33.6,30.4,30.32,North,355,4.0,7.0,88,0.00,,,0.00,meteohub,2013-03-07 16:07:00,
2013-03-07 11:12:00,33.6,30.4,30.32,NNE,25,3.0,8.0,88,0.00,,,0.00,meteohub,2013-03-07 16:12:00,
2013-03-07 11:17:00,33.6,30.4,30.32,North,355,6.0,9.0,88,0.00,,,0.00,meteohub,2013-03-07 16:17:00,
2013-03-07 11:22:00,33.8,30.6,30.32,NNW,347,4.0,9.0,88,0.00,,,0.00,meteohub,2013-03-07 16:22:00,
2013-03-07 11:27:00,33.8,30.6,30.32,NNW,330,3.0,9.0,88,0.00,,,0.00,meteohub,2013-03-07 16:27:00,
2013-03-07 11:32:00,33.6,30.4,30.32,NNW,328,7.0,9.0,88,0.00,,,0.00,meteohub,2013-03-07 16:32:00,
2013-03-07 11:37:00,34.0,31.1,30.32,North,0,3.0,9.0,89,0.00,,,0.00,meteohub,2013-03-07 16:37:00,
2013-03-07 11:42:00,34.2,30.9,30.32,NNW,342,6.0,7.0,88,0.00,,,0.00,meteohub,2013-03-07 16:42:00,
2013-03-07 11:47:00,34.2,30.7,30.32,North,11,7.0,9.0,87,0.00,,,0.00,meteohub,2013-03-07 16:47:00,
2013-03-07 11:52:00,34.2,30.7,30.32,North,5,6.0,9.0,87,0.00,,,0.00,meteohub,2013-03-07 16:52:00,
2013-03-07 11:57:00,34.3,30.9,30.32,NW,319,6.0,9.0,87,0.00,,,0.00,meteohub,2013-03-07 16:57:00,
2013-03-07 12:02:00,34.5,31.3,30.32,NW,325,4.0,10.0,88,0.00,,,0.00,meteohub,2013-03-07 17:02:00,
2013-03-07 12:07:00,35.1,31.3,30.32,North,349,6.0,10.0,86,0.00,,,0.00,meteohub,2013-03-07 17:07:00,
2013-03-07 12:12:00,35.4,31.6,30.32,NNE,19,4.0,10.0,86,0.00,,,0.00,meteohub,2013-03-07 17:12:00,
2013-03-07 12:17:00,35.4,31.1,30.32,NNE,24,4.0,9.0,84,0.00,,,0.00,meteohub,2013-03-07 17:17:00,
2013-03-07 12:22:00,35.6,31.3,30.32,NNW,344,3.0,9.0,84,0.00,,,0.00,meteohub,2013-03-07 17:22:00,
2013-03-07 12:29:00,35.8,31.5,30.32,NNW,336,9.0,9.0,84,0.00,,,0.00,meteohub,2013-03-07 17:29:00,
2013-03-07 12:34:00,36.0,31.6,30.32,NNW,335,8.0,9.0,84,0.00,,,0.00,meteohub,2013-03-07 17:34:00,
2013-03-07 12:39:00,36.1,31.5,30.32,NNE,33,4.0,9.0,83,0.00,,,0.00,meteohub,2013-03-07 17:39:00,
2013-03-07 12:44:00,36.1,31.5,30.32,NW,310,5.0,8.0,83,0.00,,,0.00,meteohub,2013-03-07 17:44:00,
2013-03-07 12:50:00,36.3,31.3,30.32,NNW,344,3.0,8.0,82,0.00,,,0.00,meteohub,2013-03-07 17:50:00,
2013-03-07 12:55:00,36.3,31.1,30.32,NNE,28,5.0,10.0,81,0.00,,,0.00,meteohub,2013-03-07 17:55:00,
2013-03-07 13:00:00,36.3,31.1,30.32,NNE,32,5.0,11.0,81,0.00,,,0.00,meteohub,2013-03-07 18:00:00,
2013-03-07 13:05:00,36.7,31.5,30.32,NNW,344,6.0,11.0,81,0.00,,,0.00,meteohub,2013-03-07 18:05:00,
2013-03-07 13:10:00,36.9,31.6,30.32,North,350,2.0,13.0,81,0.00,,,0.00,meteohub,2013-03-07 18:10:00,
2013-03-07 13:15:00,36.9,31.6,30.32,NNW,344,4.0,13.0,81,0.00,,,0.00,meteohub,2013-03-07 18:15:00,
2013-03-07 13:20:00,36.9,30.9,30.31,NNW,347,3.0,13.0,79,0.00,,,0.00,meteohub,2013-03-07 18:20:00,
2013-03-07 13:25:00,37.0,31.5,30.31,NNE,23,7.0,8.0,80,0.00,,,0.00,meteohub,2013-03-07 18:25:00,
2013-03-07 13:30:00,36.9,31.6,30.31,North,0,10.0,10.0,81,0.00,,,0.00,meteohub,2013-03-07 18:30:00,
2013-03-07 13:36:00,36.3,30.7,30.31,NNE,23,5.0,10.0,80,0.00,,,0.00,meteohub,2013-03-07 18:36:00,
2013-03-07 13:41:00,36.1,31.1,30.31,NNW,342,5.0,10.0,82,0.00,,,0.00,meteohub,2013-03-07 18:41:00,
2013-03-07 13:46:00,36.1,31.1,30.31,NNE,17,5.0,10.0,82,0.00,,,0.00,meteohub,2013-03-07 18:46:00,
2013-03-07 13:51:00,36.3,31.1,30.31,NNW,343,5.0,9.0,81,0.00,,,0.00,meteohub,2013-03-07 18:51:00,
2013-03-07 13:56:00,36.0,30.9,30.31,North,355,5.0,10.0,82,0.00,,,0.00,meteohub,2013-03-07 18:56:00,
2013-03-07 14:02:00,36.0,30.9,30.31,NW,325,2.0,10.0,82,0.00,,,0.00,meteohub,2013-03-07 19:02:00,
2013-03-07 14:07:00,36.0,30.9,30.31,NE,43,1.0,10.0,82,0.00,,,0.00,meteohub,2013-03-07 19:07:00,
2013-03-07 14:12:00,35.8,30.7,30.31,NNE,25,3.0,8.0,82,0.00,,,0.00,meteohub,2013-03-07 19:12:00,
2013-03-07 14:17:00,35.4,30.6,30.31,NE,34,4.0,9.0,82,0.00,,,0.00,meteohub,2013-03-07 19:17:00,
2013-03-07 14:22:00,35.2,30.6,30.31,North,350,9.0,9.0,83,0.00,,,0.00,meteohub,2013-03-07 19:22:00,
2013-03-07 14:27:00,35.4,31.1,30.31,NNE,16,8.0,11.0,84,0.00,,,0.00,meteohub,2013-03-07 19:27:00,
2013-03-07 14:32:00,35.2,30.9,30.31,North,351,3.0,11.0,84,0.00,,,0.00,meteohub,2013-03-07 19:32:00,
2013-03-07 14:37:00,34.7,30.4,30.31,NNW,344,5.0,11.0,84,0.00,,,0.00,meteohub,2013-03-07 19:37:00,
2013-03-07 14:42:00,34.3,30.4,30.31,NNW,337,6.0,11.0,85,0.00,,,0.00,meteohub,2013-03-07 19:42:00,
2013-03-07 14:47:00,34.0,30.2,30.31,NNE,27,2.0,10.0,86,0.00,,,0.00,meteohub,2013-03-07 19:47:00,
2013-03-07 14:52:00,33.8,30.0,30.32,NNW,340,7.0,10.0,86,0.00,,,0.00,meteohub,2013-03-07 19:52:00,
2013-03-07 14:57:00,33.6,30.2,30.32,ENE,65,2.0,10.0,87,0.00,,,0.00,meteohub,2013-03-07 19:57:00,
2013-03-07 15:02:00,33.4,30.0,30.32,NNE,19,4.0,10.0,87,0.00,,,0.00,meteohub,2013-03-07 20:02:00,
2013-03-07 15:07:00,33.3,29.8,30.32,NNW,348,6.0,12.0,87,0.00,,,0.00,meteohub,2013-03-07 20:07:00,
2013-03-07 15:12:00,33.1,29.8,30.32,NNW,344,2.0,12.0,88,0.00,,,0.00,meteohub,2013-03-07 20:12:00,
2013-03-07 15:17:00,32.9,30.0,30.32,NNW,338,4.0,12.0,89,0.00,,,0.00,meteohub,2013-03-07 20:17:00,
2013-03-07 15:22:00,32.7,29.8,30.32,NE,50,3.0,9.0,89,0.00,,,0.00,meteohub,2013-03-07 20:22:00,
2013-03-07 15:27:00,32.7,29.8,30.32,NNW,348,4.0,9.0,89,0.00,,,0.00,meteohub,2013-03-07 20:27:00,
2013-03-07 15:32:00,32.5,29.7,30.32,NW,306,5.0,8.0,89,0.00,,,0.00,meteohub,2013-03-07 20:32:00,
2013-03-07 15:37:00,32.4,29.5,30.32,NNE,21,3.0,10.0,89,0.00,,,0.00,meteohub,2013-03-07 20:37:00,
2013-03-07 15:42:00,32.2,29.3,30.33,NNE,22,8.0,10.0,89,0.00,,,0.00,meteohub,2013-03-07 20:42:00,
2013-03-07 15:47:00,32.2,29.3,30.33,NNW,333,6.0,10.0,89,0.00,,,0.00,meteohub,2013-03-07 20:47:00,
2013-03-07 15:52:00,32.2,29.3,30.33,NNW,344,3.0,10.0,89,0.00,,,0.00,meteohub,2013-03-07 20:52:00,
2013-03-07 15:57:00,32.2,29.7,30.33,NNE,15,7.0,9.0,90,0.00,,,0.00,meteohub,2013-03-07 20:57:00,
2013-03-07 16:02:00,32.2,29.7,30.33,NNW,348,2.0,9.0,90,0.00,,,0.00,meteohub,2013-03-07 21:02:00,
2013-03-07 16:07:00,32.0,29.5,30.33,ENE,76,2.0,8.0,90,0.00,,,0.00,meteohub,2013-03-07 21:07:00,
2013-03-07 16:12:00,32.0,29.5,30.33,North,355,4.0,8.0,90,0.00,,,0.00,meteohub,2013-03-07 21:12:00,
2013-03-07 16:17:00,32.2,29.7,30.34,North,350,4.0,8.0,90,0.00,,,0.00,meteohub,2013-03-07 21:17:00,
2013-03-07 16:22:00,32.2,29.7,30.34,NNW,331,5.0,8.0,90,0.00,,,0.00,meteohub,2013-03-07 21:22:00,
2013-03-07 16:28:00,32.2,29.3,30.34,North,5,4.0,7.0,89,0.00,,,0.00,meteohub,2013-03-07 21:28:00,
2013-03-07 16:33:00,32.2,29.7,30.34,NNW,347,8.0,8.0,90,0.00,,,0.00,meteohub,2013-03-07 21:33:00,
2013-03-07 16:38:00,31.8,29.3,30.34,North,349,2.0,7.0,90,0.00,,,0.00,meteohub,2013-03-07 21:38:00,
2013-03-07 16:43:00,31.8,29.3,30.34,North,355,1.0,9.0,90,0.00,,,0.00,meteohub,2013-03-07 21:43:00,
2013-03-07 16:48:00,31.8,29.3,30.34,North,355,3.0,9.0,90,0.00,,,0.00,meteohub,2013-03-07 21:48:00,
2013-03-07 16:53:00,31.8,29.5,30.34,NE,45,3.0,9.0,91,0.00,,,0.00,meteohub,2013-03-07 21:53:00,
2013-03-07 16:58:00,31.6,29.3,30.35,NE,56,1.0,7.0,91,0.00,,,0.00,meteohub,2013-03-07 21:58:00,
2013-03-07 17:04:00,31.5,29.5,30.35,NNE,17,1.0,8.0,92,0.00,,,0.00,meteohub,2013-03-07 22:04:00,
2013-03-07 17:09:00,31.5,29.5,30.35,NNE,22,2.0,8.0,92,0.00,,,0.00,meteohub,2013-03-07 22:09:00,
2013-03-07 17:14:00,31.3,29.3,30.35,NE,52,1.0,8.0,92,0.00,,,0.00,meteohub,2013-03-07 22:14:00,
2013-03-07 17:19:00,31.3,29.5,30.35,North,351,2.0,6.0,93,0.00,,,0.00,meteohub,2013-03-07 22:19:00,
2013-03-07 17:24:00,30.9,28.9,30.35,North,9,2.0,8.0,92,0.00,,,0.00,meteohub,2013-03-07 22:24:00,
2013-03-07 17:30:00,30.9,29.1,30.35,NW,323,4.0,10.0,93,0.00,,,0.00,meteohub,2013-03-07 22:30:00,
2013-03-07 17:35:00,30.9,29.1,30.35,NNW,343,3.0,10.0,93,0.00,,,0.00,meteohub,2013-03-07 22:35:00,
2013-03-07 17:40:00,30.9,29.1,30.36,North,0,1.0,9.0,93,0.00,,,0.00,meteohub,2013-03-07 22:40:00,
2013-03-07 17:45:00,30.9,29.1,30.36,NNW,348,2.0,6.0,93,0.00,,,0.00,meteohub,2013-03-07 22:45:00,
2013-03-07 17:50:00,30.9,29.1,30.36,NE,55,0.0,7.0,93,0.00,,,0.00,meteohub,2013-03-07 22:50:00,
2013-03-07 17:55:00,30.7,28.9,30.36,NE,54,5.0,8.0,93,0.00,,,0.00,meteohub,2013-03-07 22:55:00,
2013-03-07 18:01:00,30.7,28.9,30.36,East,84,9.0,9.0,93,0.00,,,0.00,meteohub,2013-03-07 23:01:00,
2013-03-07 18:06:00,30.7,28.9,30.37,North,350,3.0,9.0,93,0.00,,,0.00,meteohub,2013-03-07 23:06:00,
2013-03-07 18:11:00,30.7,28.8,30.37,NNE,22,5.0,9.0,92,0.00,,,0.00,meteohub,2013-03-07 23:11:00,
2013-03-07 18:16:00,30.7,28.8,30.37,NNW,344,5.0,9.0,92,0.00,,,0.00,meteohub,2013-03-07 23:16:00,
2013-03-07 18:22:00,30.7,28.8,30.36,ENE,60,7.0,8.0,92,0.00,,,0.00,meteohub,2013-03-07 23:22:00,
2013-03-07 18:27:00,30.7,28.8,30.36,ENE,72,4.0,7.0,92,0.00,,,0.00,meteohub,2013-03-07 23:27:00,
2013-03-07 18:32:00,30.7,28.8,30.36,NNE,17,2.0,7.0,92,0.00,,,0.00,meteohub,2013-03-07 23:32:00,
2013-03-07 18:37:00,30.7,28.8,30.37,NW,313,1.0,10.0,92,0.00,,,0.00,meteohub,2013-03-07 23:37:00,
2013-03-07 18:42:00,30.7,28.8,30.37,NNW,340,1.0,10.0,92,0.00,,,0.00,meteohub,2013-03-07 23:42:00,
2013-03-07 18:47:00,30.6,28.6,30.37,NNE,21,2.0,10.0,92,0.00,,,0.00,meteohub,2013-03-07 23:47:00,
2013-03-07 18:52:00,30.6,28.6,30.37,NNE,27,1.0,7.0,92,0.00,,,0.00,meteohub,2013-03-07 23:52:00,
2013-03-07 18:57:00,30.6,28.6,30.37,NE,49,0.0,7.0,92,0.00,,,0.00,meteohub,2013-03-07 23:57:00,
2013-03-07 19:02:00,30.6,28.6,30.37,NE,51,3.0,6.0,92,0.00,,,0.00,meteohub,2013-03-08 00:02:00,
2013-03-07 19:07:00,30.6,28.6,30.37,NNE,15,1.0,5.0,92,0.00,,,0.00,meteohub,2013-03-08 00:07:00,
2013-03-07 19:12:00,30.4,28.4,30.38,NE,44,1.0,6.0,92,0.00,,,0.00,meteohub,2013-03-08 00:12:00,
2013-03-07 19:17:00,30.4,28.4,30.38,NNE,28,2.0,6.0,92,0.00,,,0.00,meteohub,2013-03-08 00:17:00,
2013-03-07 19:22:00,30.2,28.2,30.38,NNW,348,0.0,10.0,92,0.00,,,0.00,meteohub,2013-03-08 00:22:00,
2013-03-07 19:27:00,30.2,28.2,30.38,NE,50,2.0,10.0,92,0.00,,,0.00,meteohub,2013-03-08 00:27:00,
2013-03-07 19:32:00,30.0,28.0,30.38,NNE,17,1.0,10.0,92,0.00,,,0.00,meteohub,2013-03-08 00:32:00,
2013-03-07 19:37:00,30.0,28.0,30.38,North,355,3.0,9.0,92,0.00,,,0.00,meteohub,2013-03-08 00:37:00,
2013-03-07 19:42:00,29.8,27.9,30.38,NNE,26,1.0,9.0,92,0.00,,,0.00,meteohub,2013-03-08 00:42:00,
2013-03-07 19:47:00,29.8,27.9,30.38,NNE,28,2.0,7.0,92,0.00,,,0.00,meteohub,2013-03-08 00:47:00,
2013-03-07 19:52:00,29.8,27.9,30.38,NNE,23,2.0,8.0,92,0.00,,,0.00,meteohub,2013-03-08 00:52:00,
2013-03-07 19:57:00,29.8,27.9,30.38,NW,308,5.0,8.0,92,0.00,,,0.00,meteohub,2013-03-08 00:57:00,
2013-03-07 20:02:00,29.8,27.9,30.39,East,92,3.0,8.0,92,0.00,,,0.00,meteohub,2013-03-08 01:02:00,
2013-03-07 20:07:00,29.7,27.7,30.38,NNE,12,6.0,8.0,92,0.00,,,0.00,meteohub,2013-03-08 01:07:00,
2013-03-07 20:12:00,29.7,27.7,30.38,ENE,62,1.0,8.0,92,0.00,,,0.00,meteohub,2013-03-08 01:12:00,
2013-03-07 20:17:00,29.7,27.7,30.38,NE,38,3.0,11.0,92,0.00,,,0.00,meteohub,2013-03-08 01:17:00,
2013-03-07 20:22:00,29.7,27.7,30.39,NNE,12,1.0,11.0,92,0.00,,,0.00,meteohub,2013-03-08 01:22:00,
2013-03-07 20:27:00,29.7,27.7,30.39,NNE,32,4.0,11.0,92,0.00,,,0.00,meteohub,2013-03-08 01:27:00,
2013-03-07 20:32:00,29.5,27.5,30.39,ENE,72,2.0,8.0,92,0.00,,,0.00,meteohub,2013-03-08 01:32:00,
2013-03-07 20:37:00,29.5,27.5,30.39,ENE,69,3.0,9.0,92,0.00,,,0.00,meteohub,2013-03-08 01:37:00,
2013-03-07 20:42:00,29.5,27.5,30.39,NE,44,2.0,9.0,92,0.00,,,0.00,meteohub,2013-03-08 01:42:00,
2013-03-07 20:47:00,29.3,27.3,30.40,NE,54,1.0,9.0,92,0.00,,,0.00,meteohub,2013-03-08 01:47:00,
2013-03-07 20:52:00,29.1,27.1,30.40,ENE,61,3.0,8.0,92,0.00,,,0.00,meteohub,2013-03-08 01:52:00,
2013-03-07 20:57:00,29.1,27.1,30.40,NNE,29,1.0,9.0,92,0.00,,,0.00,meteohub,2013-03-08 01:57:00,
2013-03-07 21:02:00,29.1,27.1,30.40,NNW,333,5.0,9.0,92,0.00,,,0.00,meteohub,2013-03-08 02:02:00,
2013-03-07 21:07:00,28.9,27.0,30.40,NW,306,4.0,7.0,92,0.00,,,0.00,meteohub,2013-03-08 02:07:00,
2013-03-07 21:12:00,28.9,26.6,30.40,East,90,1.0,7.0,91,0.00,,,0.00,meteohub,2013-03-08 02:12:00,
2013-03-07 21:17:00,28.9,26.6,30.40,NE,48,4.0,8.0,91,0.00,,,0.00,meteohub,2013-03-08 02:17:00,
2013-03-07 21:23:00,28.9,26.6,30.40,ESE,121,4.0,8.0,91,0.00,,,0.00,meteohub,2013-03-08 02:23:00,
2013-03-07 21:28:00,28.8,26.4,30.40,NNE,28,4.0,8.0,91,0.00,,,0.00,meteohub,2013-03-08 02:28:00,
2013-03-07 21:33:00,28.8,26.4,30.40,NE,53,6.0,8.0,91,0.00,,,0.00,meteohub,2013-03-08 02:33:00,
2013-03-07 21:38:00,28.8,26.4,30.40,NNE,15,3.0,8.0,91,0.00,,,0.00,meteohub,2013-03-08 02:38:00,
2013-03-07 21:43:00,28.8,26.4,30.40,North,355,3.0,8.0,91,0.00,,,0.00,meteohub,2013-03-08 02:43:00,
2013-03-07 21:48:00,28.6,26.2,30.39,East,93,5.0,8.0,91,0.00,,,0.00,meteohub,2013-03-08 02:48:00,
2013-03-07 21:53:00,28.6,26.2,30.40,NE,46,4.0,8.0,91,0.00,,,0.00,meteohub,2013-03-08 02:53:00,
2013-03-07 21:59:00,28.4,26.1,30.40,NE,55,2.0,8.0,91,0.00,,,0.00,meteohub,2013-03-08 02:59:00,
2013-03-07 22:04:00,28.4,26.1,30.40,NE,51,1.0,10.0,91,0.00,,,0.00,meteohub,2013-03-08 03:04:00,
2013-03-07 22:09:00,28.2,25.9,30.40,NNW,327,5.0,10.0,91,0.00,,,0.00,meteohub,2013-03-08 03:09:00,
2013-03-07 22:14:00,28.2,25.9,30.40,North,0,6.0,10.0,91,0.00,,,0.00,meteohub,2013-03-08 03:14:00,
2013-03-07 22:19:00,28.2,25.7,30.40,ENE,64,3.0,11.0,90,0.00,,,0.00,meteohub,2013-03-08 03:19:00,
2013-03-07 22:25:00,28.2,25.7,30.40,North,351,7.0,11.0,90,0.00,,,0.00,meteohub,2013-03-08 03:25:00,
2013-03-07 22:30:00,28.0,25.5,30.40,ENE,76,2.0,13.0,90,0.00,,,0.00,meteohub,2013-03-08 03:30:00,
2013-03-07 22:35:00,28.0,25.5,30.40,ENE,69,3.0,13.0,90,0.00,,,0.00,meteohub,2013-03-08 03:35:00,
2013-03-07 22:40:00,28.0,25.5,30.40,NNE,19,5.0,10.0,90,0.00,,,0.00,meteohub,2013-03-08 03:40:00,
2013-03-07 22:45:00,28.0,25.5,30.40,East,80,3.0,10.0,90,0.00,,,0.00,meteohub,2013-03-08 03:45:00,
2013-03-07 22:50:00,28.0,25.5,30.40,North,351,7.0,10.0,90,0.00,,,0.00,meteohub,2013-03-08 03:50:00,
2013-03-07 22:55:00,27.9,25.0,30.40,NNW,347,3.0,10.0,89,0.00,,,0.00,meteohub,2013-03-08 03:55:00,
2013-03-07 23:00:00,27.9,25.3,30.40,NE,40,2.0,10.0,90,0.00,,,0.00,meteohub,2013-03-08 04:00:00,
2013-03-07 23:05:00,27.9,25.3,30.39,NNW,338,3.0,8.0,90,0.00,,,0.00,meteohub,2013-03-08 04:05:00,
2013-03-07 23:11:00,27.9,25.3,30.40,NNE,19,3.0,9.0,90,0.00,,,0.00,meteohub,2013-03-08 04:11:00,
2013-03-07 23:16:00,27.9,25.3,30.40,North,349,6.0,9.0,90,0.00,,,0.00,meteohub,2013-03-08 04:16:00,
2013-03-07 23:21:00,28.0,25.5,30.40,NW,312,4.0,9.0,90,0.00,,,0.00,meteohub,2013-03-08 04:21:00,
2013-03-07 23:26:00,27.9,25.3,30.40,ENE,73,2.0,7.0,90,0.00,,,0.00,meteohub,2013-03-08 04:26:00,
2013-03-07 23:31:00,27.9,25.3,30.40,NE,42,2.0,7.0,90,0.00,,,0.00,meteohub,2013-03-08 04:31:00,
2013-03-07 23:36:00,27.9,25.3,30.40,North,355,3.0,7.0,90,0.00,,,0.00,meteohub,2013-03-08 04:36:00,
2013-03-07 23:41:00,27.9,25.0,30.40,North,355,2.0,9.0,89,0.00,,,0.00,meteohub,2013-03-08 04:41:00,
2013-03-07 23:46:00,27.7,24.8,30.40,East,83,2.0,9.0,89,0.00,,,0.00,meteohub,2013-03-08 04:46:00,
2013-03-07 23:51:00,27.5,24.4,30.40,ENE,76,2.0,6.0,88,0.00,,,0.00,meteohub,2013-03-08 04:51:00,
2013-03-07 23:56:00,27.3,24.3,30.40,SSE,164,2.0,13.0,88,0.00,,,0.00,meteohub,2013-03-08 04:56:00,